Regional Weather Roundup
Issued by NWS

Home | Current Version | Previous Version | Text Only | Print | Product List | Glossary On
Versions: 1 2 3 4 5 6 7 8 9 10 11 12 13 14 15 16 17 18 19 20 21 22 23 24 25 26 27 28 29 30 31 32 33 34 35 36 37 38 39 40 41 42 43 44 45 46 47 48 49 50
000
ASUS43 KIND 291309
RWRIN

WEATHER ROUNDUP FOR INDIANA
NATIONAL WEATHER SERVICE INDIANAPOLIS IN
900 AM EDT SAT APR 29 2017

NOTE: "FAIR" INDICATES FEW OR NO CLOUDS BELOW 12,000 FEET WITH NO
SIGNIFICANT WEATHER AND/OR OBSTRUCTIONS TO VISIBILITY.

* - STATION DOES NOT REPORT WEATHER SUCH AS PRECIPITATION OR FOG.

+ - STATION NOT QUALITY CONTROLLED BY THE NATIONAL WEATHER SERVICE.
    USE DATA WITH CAUTION...ESPECIALLY DEWPOINT AND RELATIVE
    HUMIDITY OBSERVATIONS.

INZ001>003-010>013-019-020-291400-
NORTHWEST INDIANA

CITY           SKY/WX    TMP DP  RH WIND       PRES   REMARKS
GARY /AIRPORT/ CLOUDY    46  39  76 N16G30    30.15S
KNOX *+        CLOUDY    48  28  46 NE14      30.07S
LA PORTE +     CLOUDY    48  43  81 NE14      30.10R
MICHIGAN CITY+ PTSUNNY   46  45  93 N8        30.12R
MONTICELLO +   LGT RAIN  50  49  95 N8        30.03F
RENSSELAER +   CLOUDY    48  43  81 N12G18    30.07R
VALPARAISO     CLOUDY    49  44  83 N9        30.10R

$$

LMZ046-743>745-291400-
SOUTHERN LAKE MICHIGAN

STATION/POSITION TIME  TEMP    WIND        PRES    WAVE
                       AIR SEA DIR/SP/G            HT
                 (UTC) (F)     (DEG/KT/KT) (MB)    (FT)
BURNS HARBOR     1240   45      20/ 18/ 21 1020.0F
MICHIGAN CITY    1240   44      10/ 21/ 23   N/A
5NW MICH CITY    1300   44 46                N/A     4

$$

INZ004-005-014>016-021>024-291400-
NORTH CENTRAL INDIANA

CITY           SKY/WX    TMP DP  RH WIND       PRES   REMARKS
ELKHART        SUNNY     50  41  71 NE13      30.10R
GOSHEN         CLOUDY    51  42  71 N15       30.10R
LOGANSPORT +   LGT RAIN  52  52 100 NE10      30.01F
PERU/GRISSOM   LGT RAIN  54  54 100 NE6       30.04R FOG
ROCHESTER +    LGT RAIN  54  50  87 NE9       30.04F
SOUTH BEND     CLOUDY    48  42  80 NE13G21   30.11R
WARSAW +       LGT RAIN  52  46  82 N10G17    30.07R

$$

INZ006>009-017-018-025>027-291400-
NORTHEAST INDIANA

CITY           SKY/WX    TMP DP  RH WIND       PRES   REMARKS
ANGOLA *+      CLOUDY    50  36  57 NE10      30.08R
AUBURN +       CLOUDY    54  48  82 NE10      30.06S
FORT WAYNE     CLOUDY    55  53  93 NE12      30.06R FOG
HUNTINGTON +   DRIZZLE   54  52  95 E6        30.03S
KENDALLVILLE + CLOUDY    51  47  84 NE10      30.08R

$$

INZ028-029-035-036-043>045-051>053-291400-
WEST CENTRAL INDIANA

CITY           SKY/WX    TMP DP  RH WIND       PRES   REMARKS
CRAWFORDSVL +  LGT RAIN  52  52 100 NE8       29.96F
GREENCASTLE +  RAIN      55  55 100 E5        30.00R
LAFAYETTE      LGT RAIN  51  51 100 NE12      30.03R FOG
TERRE HAUTE    RAIN      58  56  93 N10       29.97F FOG

$$

INZ030>032-037>040-046>048-054>057-064-065-291400-
CENTRAL INDIANA

CITY           SKY/WX    TMP DP  RH WIND       PRES   REMARKS
ANDERSON       LGT RAIN  55  55 100 E6        30.03
CP ATTERBURY + CLOUDY    59  59 100 N6        29.98F
COLUMBUS       LGT RAIN  59  59 100 CALM      30.00R
FRANKFORT +    RAIN      56  55  95 NE13      30.01F
GREENWOOD *+   CLOUDY    59  58  97 CALM      30.02R
INDIANAPOLIS   RAIN      57  56  96 E10       30.00R FOG
-EAGLE CREEK   LGT RAIN  57  55  93 E10       29.99R
KOKOMO +       LGT RAIN  54  53  97 N13       30.04S FOG
MT COMFORT *+  CLOUDY    55  55 100 NE3       30.02R
SHELBYVILLE    LGT RAIN  61  58  90 NE9       30.00R FOG
ZIONSVILLE +   RAIN      54  53  97 N12       30.00F

$$

INZ033-034-041-042-049-050-058-059-291400-
EAST CENTRAL INDIANA

CITY           SKY/WX    TMP DP  RH WIND       PRES   REMARKS
MUNCIE         LGT RAIN  56  54  93 E9        30.02S
RICHMOND +     RAIN      59  59 100 CALM      30.04R

$$

INZ060-061-067>069-081>083-085>088-291400-
SOUTHWEST INDIANA

CITY           SKY/WX    TMP DP  RH WIND       PRES   REMARKS
EVANSVILLE     HVY RAIN  65  63  93 E13       30.02R FOG
WASHINGTON +   TSTM      61  60  94 S9        29.99R

$$

INZ062-063-066-070>080-084-089>092-291400-
SOUTH CENTRAL AND SOUTHEAST INDIANA

CITY           SKY/WX    TMP DP  RH WIND       PRES   REMARKS
BLOOMINGTON    TSTM      62  60  93 SE8       29.99R
MADISON *+     CLOUDY    63  61  94 E7        30.07R
SEYMOUR +      CLOUDY   N/A N/A N/A S7        30.02R

$$




USA.gov is the U.S. government's official web portal to all federal, state and local government web resources and services.